Mountain Home AFB, ID

3:58 PM MST on February 21, 2017 (GMT -0700)
Mountain Home Air Force Base

Weather History for KMUO - July, 2013

Change the Weather History Date:

Wednesday, July 24, 2013

  Actual Average Record
Temperature  
Mean Temperature 81 °F 78 °F  
Max Temperature 94 °F 95 °F 115 °F (2003)
Min Temperature 68 °F 59 °F 43 °F (1965)
Degree Days  
Heating Degree Days 0 0  
Month to date heating degree days 0 6  
Cooling Degree Days 16 13  
Month to date cooling degree days 360 250  
Growing Degree Days 30 (Base 50)    
Moisture  
Dew Point 33 °F    
Average Humidity 17    
Maximum Humidity 26    
Minimum Humidity 12    
Precipitation  
Precipitation 0.00 in 0.01 in 0.33 in (1936)
Month to date precipitation T 0.17  
Sea Level Pressure  
Sea Level Pressure 29.90 in    
Wind  
Wind Speed 5 mph (WNW)    
Max Wind Speed 10 mph    
Max Gust Speed -    
Visibility 10 miles    
Events      
T = Trace of Precipitation, MM = Missing Value Source: NWS Daily Summary

Daily Weather History Graph

Daily Weather History Graph

Search for Another Location

Airport or City:

Trip Planner

Search our weather history database for the weather conditions in past years. The results will help you decide how hot, cold, wet, or windy it might be!

Date:

Astronomy

Jul. 24, 2013 Rise Set
Actual Time 6:26 AM MDT 9:12 PM MDT
Civil Twilight 5:53 AM MDT 9:46 PM MDT
Nautical Twilight 5:11 AM MDT 10:27 PM MDT
Astronomical Twilight 4:23 AM MDT 11:15 PM MDT
Moon 10:15 PM MDT (7/24) 8:56 AM MDT (7/24)
Length of Visible Light 15h 52m
Length of Day
14h 46m
Waning Gibbous, 94% of the Moon is Illuminated
Jul 24
Waning Gibbous
Jul 29
Last Quarter
Aug 6
New
Aug 14
First Quarter
Aug 20
Full

Hourly Weather History & Observations

Time (MDT) Temp. Dew Point Humidity Pressure Visibility Wind Dir Wind Speed Gust Speed Precip Events Conditions
12:58 AM 77.0 °F 26.4 °F 15% 29.95 in 10.0 mi WNW 4.6 mph - N/A   Mostly Cloudy
1:58 AM 73.2 °F 27.7 °F 18% 29.96 in 10.0 mi SW 3.5 mph - N/A   Overcast
2:58 AM 74.5 °F 32.5 °F 22% 29.95 in 10.0 mi North 3.5 mph - N/A   Overcast
3:58 AM 73.0 °F 31.6 °F 22% 29.86 in 10.0 mi East 8.1 mph - N/A   Overcast
4:58 AM 72.9 °F 30.7 °F 21% 29.86 in 10.0 mi Calm Calm - N/A   Clear
5:58 AM 73.9 °F 26.1 °F 17% 29.86 in 10.0 mi Variable 4.6 mph - N/A   Mostly Cloudy
6:58 AM 68.2 °F 32.2 °F 26% 29.90 in 10.0 mi ESE 6.9 mph - N/A   Overcast
7:58 AM 70.2 °F 32.2 °F 25% 29.90 in 10.0 mi East 4.6 mph - N/A   Clear
8:58 AM 77.4 °F 32.0 °F 19% 29.90 in 10.0 mi North 3.5 mph - N/A   Overcast
9:58 AM 81.5 °F 28.4 °F 14% 29.91 in 10.0 mi NW 8.1 mph - N/A   Overcast
10:58 AM 82.9 °F 27.3 °F 13% 29.92 in 10.0 mi WNW 8.1 mph - N/A   Overcast
11:58 AM 83.7 °F 36.5 °F 19% 29.93 in 10.0 mi WSW 5.8 mph - N/A   Overcast
12:58 PM 85.5 °F 34.0 °F 16% 29.93 in 10.0 mi SSW 5.8 mph - N/A   Overcast
1:58 PM 87.3 °F 33.4 °F 15% 29.94 in 10.0 mi SW 8.1 mph - N/A   Overcast
2:58 PM 90.5 °F 33.8 °F 13% 29.92 in 10.0 mi NW 9.2 mph - N/A   Mostly Cloudy
3:58 PM 92.5 °F 36.7 °F 14% 29.90 in 10.0 mi SW 8.1 mph - N/A   Scattered Clouds
4:58 PM 91.4 °F 32.7 °F 12% 29.89 in 10.0 mi SSW 5.8 mph - N/A   Mostly Cloudy
5:58 PM 92.7 °F 34.9 °F 13% 29.86 in 10.0 mi WSW 8.1 mph - N/A   Mostly Cloudy
6:58 PM 89.4 °F 34.9 °F 14% 29.88 in 10.0 mi West 2.3 mph - N/A   Mostly Cloudy
7:58 PM 89.2 °F 38.1 °F 16% 29.88 in 10.0 mi WNW 3.5 mph - N/A   Mostly Cloudy
8:58 PM 86.9 °F 36.1 °F 16% 29.87 in 10.0 mi SE 4.6 mph - N/A   Mostly Cloudy
9:58 PM 86.4 °F 37.4 °F 18% 29.88 in 10.0 mi NNW 9.2 mph - N/A   Mostly Cloudy
10:58 PM 84.0 °F 38.1 °F 20% 29.88 in 10.0 mi North 10.4 mph - N/A   Overcast
11:58 PM 83.3 °F 38.8 °F 21% 29.86 in 10.0 mi North 9.2 mph - N/A   Overcast